Regional Weather Roundup
Issued by NWS Charleston, WV

Home | Current Version | Previous Version | Graphics & Text | Print | Product List | Glossary On
Versions: 1 2 3 4 5 6 7 8 9 10 11 12 13 14 15 16 17 18 19 20 21 22 23 24 25 26 27 28 29 30 31 32 33 34 35 36 37 38 39 40 41 42 43 44 45 46 47 48 49 50
000
ASUS41 KRLX 300810
RWRRLX
West Virginia Regional Weather Roundup
National Weather Service Charleston WV
400 AM EDT SAT JUL 30 2016

Note: "fair" indicates few or no clouds below 12,000 feet with no
significant weather and/or obstructions to visibility.

WVZ003-300900-
Northern Panhandle of West Virginia

CITY           SKY/WX    TMP DP  RH WIND       PRES   REMARKS
WHEELING         N/A     71  66  84 E3        29.94F
$$

WVZ009-300900-
Northwest West Virginia

CITY           SKY/WX    TMP DP  RH WIND       PRES   REMARKS
PARKERSBURG    MOCLDY    73  71  93 CALM      29.94F FOG
$$

WVZ006-300900-
Western West Virginia

CITY           SKY/WX    TMP DP  RH WIND       PRES   REMARKS
HUNTINGTON     CLOUDY    71  69  93 S5        29.92F
$$

WVZ015-300900-
West Central West Virginia

CITY           SKY/WX    TMP DP  RH WIND       PRES   REMARKS
CHARLESTON       N/A     71  68  90 CALM      29.95R
$$

WVZ022-031-300900-
North Central West Virginia

CITY           SKY/WX    TMP DP  RH WIND       PRES   REMARKS
CLARKSBURG       N/A     68  67  96 S3        29.95F
MORGANTOWN       N/A     69  66  90 CALM      29.97S
$$

WVZ025-035-042-045-300900-
Southern West Virginia

CITY           SKY/WX    TMP DP  RH WIND       PRES   REMARKS
BECKLEY          N/A     64  63  96 CALM      30.03F FOG
LOGAN            N/A     68  68 100 CALM      29.97S
BLUEFIELD        N/A     66  62  87 SW3       30.06F
LEWISBURG      FOG       65  64  98 CALM      30.04R VSB 1
$$

WVZ047-300900-
Northern Mountains of West Virginia

CITY           SKY/WX    TMP DP  RH WIND       PRES   REMARKS
ELKINS         CLOUDY    67  64  90 CALM      30.01F FOG
$$

WVZ052-300900-
Eastern Panhandle of West Virginia

CITY           SKY/WX    TMP DP  RH WIND       PRES   REMARKS
MARTINSBURG      N/A     70  68  93 CALM      29.93F FOG
PETERSBURG     CLOUDY    71  70  97 CALM      29.96S FOG
$$



USA.gov is the U.S. government's official web portal to all federal, state and local government web resources and services.